sat.trackr.live / text

‹ back to catalog

STARLINK-11586 [DTC]

NORAD 63009 · 2025-032E

PAYLOAD ACTIVE UNKNOWN

§ Identity

Operator
Country
US
Launch date
2025-02-15
Launch site
AFETR
Launch vehicle
Mass (kg)
RCS (m²)

Purposes: comms

External: N2YO · Heavens-Above · Gunter

§ Orbital elements

Epoch: 2026-09-20T13:43:34.868640Z

Period
91.67 min
Inclination
43.0010°
Eccentricity
0.0002238
Mean motion
15.70868316 rev/d
Perigee alt
354.9 km
Apogee alt
357.9 km
Semi-major
6,734.6 km
B*
1.1468e-3
RAAN
100.6627°
Arg perigee
290.2413°
Mean anomaly
69.8214°
Rev number
9,286

§ Raw data

STARLINK-11586 [DTC]1 63009U 25032E   26263.57193135  .00149557  00000+0  11468-2 0  99952 63009  43.0010 100.6627 0002238 290.2413  69.8214 15.70868316 92866

JSON: /api/v1/satellites/63009 · /tle

For live sub-satellite position, see the globe view (requires WebGL).

§ Visibility from observer

Set your observer location to see the next 7 days of passes ≥ 10°. The values pass through the URL so the page stays shareable.

No JS? Fill the form by hand. The geolocation button needs JavaScript.